Year,Month,Day,Hour,Minute,Value (Times are PST for windgust in km/hr)
2007,03,12,00,00,19.30
2007,03,12,00,01,9.60
2007,03,12,00,02,8.10
2007,03,12,00,03,22.50
2007,03,12,00,04,14.50
2007,03,12,00,05,24.20
2007,03,12,00,06,40.20
2007,03,12,00,07,30.60
2007,03,12,00,08,22.50
2007,03,12,00,09,30.60
2007,03,12,00,10,24.20
2007,03,12,00,11,8.10
2007,03,12,00,12,3.20
2007,03,12,00,13,8.10
2007,03,12,00,14,14.50
2007,03,12,00,15,14.50
2007,03,12,00,16,32.20
2007,03,12,00,17,27.40
2007,03,12,00,18,25.70
2007,03,12,00,19,14.50
2007,03,12,00,20,14.50
2007,03,12,00,21,25.70
2007,03,12,00,22,37.00
2007,03,12,00,23,4.80
2007,03,12,00,24,27.40
2007,03,12,00,25,6.40
2007,03,12,00,26,9.60
2007,03,12,00,27,14.50
2007,03,12,00,28,22.50
2007,03,12,00,29,17.70
2007,03,12,00,30,17.70
2007,03,12,00,31,32.20
2007,03,12,00,32,6.40
2007,03,12,00,33,24.20
2007,03,12,00,34,16.10
2007,03,12,00,35,6.40
2007,03,12,00,36,12.90
2007,03,12,00,37,20.90
2007,03,12,00,38,16.10
2007,03,12,00,39,4.80
2007,03,12,00,40,27.40
2007,03,12,00,41,19.30
2007,03,12,00,42,6.40
2007,03,12,00,43,8.10
2007,03,12,00,44,4.80
2007,03,12,00,45,33.80
2007,03,12,00,46,19.30
2007,03,12,00,47,6.40
2007,03,12,00,48,9.60
2007,03,12,00,49,8.10
2007,03,12,00,50,24.20
2007,03,12,00,51,11.30
2007,03,12,00,52,11.30
2007,03,12,00,53,9.60
2007,03,12,00,54,6.40
2007,03,12,00,55,16.10
2007,03,12,00,56,8.10
2007,03,12,00,57,4.80
2007,03,12,00,58,24.20
2007,03,12,00,59,11.30
2007,03,12,01,00,14.50
2007,03,12,01,01,16.10
2007,03,12,01,02,6.40
2007,03,12,01,03,27.40
2007,03,12,01,04,9.60
2007,03,12,01,05,16.10
2007,03,12,01,06,17.70
2007,03,12,01,07,6.40
2007,03,12,01,08,6.40
2007,03,12,01,09,14.50
2007,03,12,01,10,3.20
2007,03,12,01,11,24.20
2007,03,12,01,12,11.30
2007,03,12,01,13,9.60
2007,03,12,01,14,16.10
2007,03,12,01,15,14.50
2007,03,12,01,16,11.30
2007,03,12,01,17,11.30
2007,03,12,01,18,9.60
2007,03,12,01,19,16.10
2007,03,12,01,20,4.80
2007,03,12,01,21,9.60
2007,03,12,01,22,11.30
2007,03,12,01,23,4.80
2007,03,12,01,24,4.80
2007,03,12,01,25,20.90
2007,03,12,01,26,17.70
2007,03,12,01,27,19.30
2007,03,12,01,28,25.70
2007,03,12,01,29,14.50
2007,03,12,01,30,20.90
2007,03,12,01,31,6.40
2007,03,12,01,32,14.50
2007,03,12,01,33,8.10
2007,03,12,01,34,12.90
2007,03,12,01,35,8.10
2007,03,12,01,36,11.30
2007,03,12,01,37,4.80
2007,03,12,01,38,9.60
2007,03,12,01,39,4.80
2007,03,12,01,40,6.40
2007,03,12,01,41,9.60
2007,03,12,01,42,11.30
2007,03,12,01,43,17.70
2007,03,12,01,44,19.30
2007,03,12,01,45,3.20
2007,03,12,01,46,6.40
2007,03,12,01,47,6.40
2007,03,12,01,48,16.10
2007,03,12,01,49,16.10
2007,03,12,01,50,29.00
2007,03,12,01,51,9.60
2007,03,12,01,52,16.10
2007,03,12,01,53,16.10
2007,03,12,01,54,14.50
2007,03,12,01,55,11.30
2007,03,12,01,56,8.10
2007,03,12,01,57,19.30
2007,03,12,01,58,8.10
2007,03,12,01,59,33.80
2007,03,12,02,00,17.70
2007,03,12,02,01,19.30
2007,03,12,02,02,14.50
2007,03,12,02,03,20.90
2007,03,12,02,04,17.70
2007,03,12,02,05,29.00
2007,03,12,02,06,19.30
2007,03,12,02,07,19.30
2007,03,12,02,08,27.40
2007,03,12,02,09,22.50
2007,03,12,02,10,16.10
2007,03,12,02,11,14.50
2007,03,12,02,12,6.40
2007,03,12,02,13,16.10
2007,03,12,02,14,27.40
2007,03,12,02,15,6.40
2007,03,12,02,16,32.20
2007,03,12,02,17,14.50
2007,03,12,02,18,33.80
2007,03,12,02,19,16.10
2007,03,12,02,20,9.60
2007,03,12,02,21,25.70
2007,03,12,02,22,20.90
2007,03,12,02,23,29.00
2007,03,12,02,24,11.30
2007,03,12,02,25,33.80
2007,03,12,02,26,25.70
2007,03,12,02,27,22.50
2007,03,12,02,28,14.50
2007,03,12,02,29,20.90
2007,03,12,02,30,33.80
2007,03,12,02,31,32.20
2007,03,12,02,32,22.50
2007,03,12,02,33,27.40
2007,03,12,02,34,22.50
2007,03,12,02,35,38.60
2007,03,12,02,36,17.70
2007,03,12,02,37,33.80
2007,03,12,02,38,20.90
2007,03,12,02,39,35.40
2007,03,12,02,40,27.40
2007,03,12,02,41,20.90
2007,03,12,02,42,17.70
2007,03,12,02,43,29.00
2007,03,12,02,44,25.70
2007,03,12,02,45,29.00
2007,03,12,02,46,19.30
2007,03,12,02,47,33.80
2007,03,12,02,48,17.70
2007,03,12,02,49,6.40
2007,03,12,02,50,4.80
2007,03,12,02,51,16.10
2007,03,12,02,52,8.10
2007,03,12,02,53,19.30
2007,03,12,02,54,35.40
2007,03,12,02,55,17.70
2007,03,12,02,56,27.40
2007,03,12,02,57,20.90
2007,03,12,02,58,19.30
2007,03,12,02,59,17.70
2007,03,12,03,00,8.10
2007,03,12,03,01,38.60
2007,03,12,03,02,16.10
2007,03,12,03,03,14.50
2007,03,12,03,04,33.80
2007,03,12,03,05,33.80
2007,03,12,03,06,32.20
2007,03,12,03,07,25.70
2007,03,12,03,08,12.90
2007,03,12,03,09,16.10
2007,03,12,03,10,20.90
2007,03,12,03,11,8.10
2007,03,12,03,12,41.80
2007,03,12,03,13,33.80
2007,03,12,03,14,22.50
2007,03,12,03,15,22.50
2007,03,12,03,16,22.50
2007,03,12,03,17,35.40
2007,03,12,03,18,20.90
2007,03,12,03,19,29.00
2007,03,12,03,20,38.60
2007,03,12,03,21,48.30
2007,03,12,03,22,25.70
2007,03,12,03,23,29.00
2007,03,12,03,24,30.60
2007,03,12,03,25,20.90
2007,03,12,03,26,29.00
2007,03,12,03,27,30.60
2007,03,12,03,28,27.40
2007,03,12,03,29,11.30
2007,03,12,03,30,22.50
2007,03,12,03,31,33.80
2007,03,12,03,32,22.50
2007,03,12,03,33,17.70
2007,03,12,03,34,30.60
2007,03,12,03,35,27.40
2007,03,12,03,36,40.20
2007,03,12,03,37,8.10
2007,03,12,03,38,19.30
2007,03,12,03,39,35.40
2007,03,12,03,40,19.30
2007,03,12,03,41,17.70
2007,03,12,03,42,16.10
2007,03,12,03,43,25.70
2007,03,12,03,44,22.50
2007,03,12,03,45,16.10
2007,03,12,03,46,24.20
2007,03,12,03,47,16.10
2007,03,12,03,48,20.90
2007,03,12,03,49,20.90
2007,03,12,03,50,24.20
2007,03,12,03,51,25.70
2007,03,12,03,52,24.20
2007,03,12,03,53,9.60
2007,03,12,03,54,19.30
2007,03,12,03,55,20.90
2007,03,12,03,56,29.00
2007,03,12,03,57,29.00
2007,03,12,03,58,22.50
2007,03,12,03,59,25.70
2007,03,12,04,00,30.60
2007,03,12,04,01,22.50
2007,03,12,04,02,37.00
2007,03,12,04,03,45.10
2007,03,12,04,04,37.00
2007,03,12,04,05,27.40
2007,03,12,04,06,25.70
2007,03,12,04,07,20.90
2007,03,12,04,08,20.90
2007,03,12,04,09,37.00
2007,03,12,04,10,20.90
2007,03,12,04,11,37.00
2007,03,12,04,12,25.70
2007,03,12,04,13,12.90
2007,03,12,04,14,30.60
2007,03,12,04,15,30.60
2007,03,12,04,16,29.00
2007,03,12,04,17,49.90
2007,03,12,04,18,27.40
2007,03,12,04,19,46.70
2007,03,12,04,20,27.40
2007,03,12,04,21,33.80
2007,03,12,04,22,27.40
2007,03,12,04,23,19.30
2007,03,12,04,24,30.60
2007,03,12,04,25,19.30
2007,03,12,04,26,17.70
2007,03,12,04,27,14.50
2007,03,12,04,28,35.40
2007,03,12,04,29,16.10
2007,03,12,04,30,22.50
2007,03,12,04,31,24.20
2007,03,12,04,32,22.50
2007,03,12,04,33,25.70
2007,03,12,04,34,29.00
2007,03,12,04,35,30.60
2007,03,12,04,36,40.20
2007,03,12,04,37,27.40
2007,03,12,04,38,19.30
2007,03,12,04,39,11.30
2007,03,12,04,40,49.90
2007,03,12,04,41,25.70
2007,03,12,04,42,25.70
2007,03,12,04,43,35.40
2007,03,12,04,44,38.60
2007,03,12,04,45,27.40
2007,03,12,04,46,46.70
2007,03,12,04,47,29.00
2007,03,12,04,48,40.20
2007,03,12,04,49,29.00
2007,03,12,04,50,25.70
2007,03,12,04,51,22.50
2007,03,12,04,52,43.50
2007,03,12,04,53,27.40
2007,03,12,04,54,27.40
2007,03,12,04,55,33.80
2007,03,12,04,56,25.70
2007,03,12,04,57,16.10
2007,03,12,04,58,40.20
2007,03,12,04,59,16.10
2007,03,12,05,00,46.70
2007,03,12,05,01,20.90
2007,03,12,05,02,24.20
2007,03,12,05,03,29.00
2007,03,12,05,04,61.20
2007,03,12,05,05,41.80
2007,03,12,05,06,56.30
2007,03,12,05,07,27.40
2007,03,12,05,08,33.80
2007,03,12,05,09,38.60
2007,03,12,05,10,20.90
2007,03,12,05,11,40.20
2007,03,12,05,12,30.60
2007,03,12,05,13,33.80
2007,03,12,05,14,25.70
2007,03,12,05,15,32.20
2007,03,12,05,16,43.50
2007,03,12,05,17,22.50
2007,03,12,05,18,25.70
2007,03,12,05,19,22.50
2007,03,12,05,20,30.60
2007,03,12,05,21,32.20
2007,03,12,05,22,29.00
2007,03,12,05,23,20.90
2007,03,12,05,24,17.70
2007,03,12,05,25,24.20
2007,03,12,05,26,43.50
2007,03,12,05,27,24.20
2007,03,12,05,28,17.70
2007,03,12,05,29,29.00
2007,03,12,05,30,32.20
2007,03,12,05,31,33.80
2007,03,12,05,32,20.90
2007,03,12,05,33,35.40
2007,03,12,05,34,33.80
2007,03,12,05,35,17.70
2007,03,12,05,36,32.20
2007,03,12,05,37,27.40
2007,03,12,05,38,19.30
2007,03,12,05,39,8.10
2007,03,12,05,40,32.20
2007,03,12,05,41,20.90
2007,03,12,05,42,27.40
2007,03,12,05,43,29.00
2007,03,12,05,44,14.50
2007,03,12,05,45,19.30
2007,03,12,05,46,32.20
2007,03,12,05,47,38.60
2007,03,12,05,48,32.20
2007,03,12,05,49,27.40
2007,03,12,05,50,32.20
2007,03,12,05,51,19.30
2007,03,12,05,52,16.10
2007,03,12,05,53,12.90
2007,03,12,05,54,8.10
2007,03,12,05,55,4.80
2007,03,12,05,56,8.10
2007,03,12,05,57,8.10
2007,03,12,05,58,14.50
2007,03,12,05,59,11.30
2007,03,12,06,00,6.40
2007,03,12,06,01,25.70
2007,03,12,06,02,11.30
2007,03,12,06,03,14.50
2007,03,12,06,04,6.40
2007,03,12,06,05,6.40
2007,03,12,06,06,8.10
2007,03,12,06,07,6.40
2007,03,12,06,08,6.40
2007,03,12,06,09,8.10
2007,03,12,06,10,9.60
2007,03,12,06,11,4.80
2007,03,12,06,12,11.30
2007,03,12,06,13,6.40
2007,03,12,06,14,8.10
2007,03,12,06,15,6.40
2007,03,12,06,16,3.20
2007,03,12,06,17,11.30
2007,03,12,06,18,9.60
2007,03,12,06,19,6.40
2007,03,12,06,20,20.90
2007,03,12,06,21,20.90
2007,03,12,06,22,3.20
2007,03,12,06,23,8.10
2007,03,12,06,24,4.80
2007,03,12,06,25,4.80
2007,03,12,06,26,19.30
2007,03,12,06,27,3.20
2007,03,12,06,28,3.20
2007,03,12,06,29,17.70
2007,03,12,06,30,9.60
2007,03,12,06,31,3.20
2007,03,12,06,32,3.20
2007,03,12,06,33,4.80
2007,03,12,06,34,4.80
2007,03,12,06,35,9.60
2007,03,12,06,36,22.50
2007,03,12,06,37,6.40
2007,03,12,06,38,8.10
2007,03,12,06,39,17.70
2007,03,12,06,40,9.60
2007,03,12,06,41,1.60
2007,03,12,06,42,3.20
2007,03,12,06,43,11.30
2007,03,12,06,44,9.60
2007,03,12,06,45,3.20
2007,03,12,06,46,0.00
2007,03,12,06,47,6.40
2007,03,12,06,48,4.80
2007,03,12,06,49,4.80
2007,03,12,06,50,1.60
2007,03,12,06,51,1.60
2007,03,12,06,52,1.60
2007,03,12,06,53,3.20
2007,03,12,06,54,11.30
2007,03,12,06,55,3.20
2007,03,12,06,56,6.40
2007,03,12,06,57,1.60
2007,03,12,06,58,1.60
2007,03,12,06,59,1.60
2007,03,12,07,00,0.00
2007,03,12,07,01,0.00
2007,03,12,07,02,0.00
2007,03,12,07,03,0.00
2007,03,12,07,04,1.60
2007,03,12,07,05,0.00
2007,03,12,07,06,0.00
2007,03,12,07,07,1.60
2007,03,12,07,08,1.60
2007,03,12,07,09,3.20
2007,03,12,07,10,1.60
2007,03,12,07,11,4.80
2007,03,12,07,12,3.20
2007,03,12,07,13,3.20
2007,03,12,07,14,3.20
2007,03,12,07,15,3.20
2007,03,12,07,16,1.60
2007,03,12,07,17,1.60
2007,03,12,07,18,1.60
2007,03,12,07,19,1.60
2007,03,12,07,20,1.60
2007,03,12,07,21,3.20
2007,03,12,07,22,4.80
2007,03,12,07,23,3.20
2007,03,12,07,24,1.60
2007,03,12,07,25,4.80
2007,03,12,07,26,4.80
2007,03,12,07,27,3.20
2007,03,12,07,28,6.40
2007,03,12,07,29,6.40
2007,03,12,07,30,1.60
2007,03,12,07,31,1.60
2007,03,12,07,32,1.60
2007,03,12,07,33,0.00
2007,03,12,07,34,1.60
2007,03,12,07,35,1.60
2007,03,12,07,36,0.00
2007,03,12,07,37,0.00
2007,03,12,07,38,3.20
2007,03,12,07,39,4.80
2007,03,12,07,40,3.20
2007,03,12,07,41,0.00
2007,03,12,07,42,0.00
2007,03,12,07,43,0.00
2007,03,12,07,44,0.00
2007,03,12,07,45,3.20
2007,03,12,07,46,1.60
2007,03,12,07,47,0.00
2007,03,12,07,48,0.00
2007,03,12,07,49,1.60
2007,03,12,07,50,0.00
2007,03,12,07,51,0.00
2007,03,12,07,52,0.00
2007,03,12,07,53,0.00
2007,03,12,07,54,0.00
2007,03,12,07,55,0.00
2007,03,12,07,56,0.00
2007,03,12,07,57,0.00
2007,03,12,07,58,0.00
2007,03,12,07,59,0.00
2007,03,12,08,00,3.20
2007,03,12,08,01,4.80
2007,03,12,08,02,3.20
2007,03,12,08,03,6.40
2007,03,12,08,04,4.80
2007,03,12,08,05,3.20
2007,03,12,08,06,0.00
2007,03,12,08,07,0.00
2007,03,12,08,08,0.00
2007,03,12,08,09,0.00
2007,03,12,08,10,0.00
2007,03,12,08,11,0.00
2007,03,12,08,12,0.00
2007,03,12,08,13,0.00
2007,03,12,08,14,0.00
2007,03,12,08,15,3.20
2007,03,12,08,16,1.60
2007,03,12,08,17,1.60
2007,03,12,08,18,0.00
2007,03,12,08,19,0.00
2007,03,12,08,20,0.00
2007,03,12,08,21,0.00
2007,03,12,08,22,0.00
2007,03,12,08,23,0.00
2007,03,12,08,24,0.00
2007,03,12,08,25,0.00
2007,03,12,08,26,0.00
2007,03,12,08,27,0.00
2007,03,12,08,28,0.00
2007,03,12,08,29,0.00
2007,03,12,08,30,0.00
2007,03,12,08,31,4.80
2007,03,12,08,32,3.20
2007,03,12,08,33,3.20
2007,03,12,08,34,3.20
2007,03,12,08,35,1.60
2007,03,12,08,36,0.00
2007,03,12,08,37,1.60
2007,03,12,08,38,3.20
2007,03,12,08,39,4.80
2007,03,12,08,40,3.20
2007,03,12,08,41,3.20
2007,03,12,08,42,4.80
2007,03,12,08,43,4.80
2007,03,12,08,44,0.00
2007,03,12,08,45,1.60
2007,03,12,08,46,1.60
2007,03,12,08,47,3.20
2007,03,12,08,48,0.00
2007,03,12,08,49,0.00
2007,03,12,08,50,0.00
2007,03,12,08,51,0.00
2007,03,12,08,52,0.00
2007,03,12,08,53,0.00
2007,03,12,08,54,0.00
2007,03,12,08,55,3.20
2007,03,12,08,56,1.60
2007,03,12,08,57,0.00
2007,03,12,08,58,0.00
2007,03,12,08,59,0.00
2007,03,12,09,00,0.00
2007,03,12,09,01,0.00
2007,03,12,09,02,0.00
2007,03,12,09,03,4.80
2007,03,12,09,04,4.80
2007,03,12,09,05,3.20
2007,03,12,09,06,4.80
2007,03,12,09,07,4.80
2007,03,12,09,08,3.20
2007,03,12,09,09,4.80
2007,03,12,09,10,3.20
2007,03,12,09,11,1.60
2007,03,12,09,12,1.60
2007,03,12,09,13,3.20
2007,03,12,09,14,3.20
2007,03,12,09,15,1.60
2007,03,12,09,16,3.20
2007,03,12,09,17,4.80
2007,03,12,09,18,1.60
2007,03,12,09,19,3.20
2007,03,12,09,20,4.80
2007,03,12,09,21,4.80
2007,03,12,09,22,8.10
2007,03,12,09,23,4.80
2007,03,12,09,24,4.80
2007,03,12,09,25,3.20
2007,03,12,09,26,8.10
2007,03,12,09,27,6.40
2007,03,12,09,28,3.20
2007,03,12,09,29,4.80
2007,03,12,09,30,9.60
2007,03,12,09,31,8.10
2007,03,12,09,32,6.40
2007,03,12,09,33,8.10
2007,03,12,09,34,6.40
2007,03,12,09,35,3.20
2007,03,12,09,36,4.80
2007,03,12,09,37,3.20
2007,03,12,09,38,6.40
2007,03,12,09,39,4.80
2007,03,12,09,40,3.20
2007,03,12,09,41,3.20
2007,03,12,09,42,1.60
2007,03,12,09,43,4.80
2007,03,12,09,44,4.80
2007,03,12,09,45,4.80
2007,03,12,09,46,3.20
2007,03,12,09,47,3.20
2007,03,12,09,48,3.20
2007,03,12,09,49,1.60
2007,03,12,09,50,1.60
2007,03,12,09,51,8.10
2007,03,12,09,52,4.80
2007,03,12,09,53,6.40
2007,03,12,09,54,3.20
2007,03,12,09,55,6.40
2007,03,12,09,56,9.60
2007,03,12,09,57,8.10
2007,03,12,09,58,6.40
2007,03,12,09,59,4.80
2007,03,12,10,00,3.20
2007,03,12,10,01,4.80
2007,03,12,10,02,11.30
2007,03,12,10,03,9.60
2007,03,12,10,04,3.20
2007,03,12,10,05,16.10
2007,03,12,10,06,6.40
2007,03,12,10,07,9.60
2007,03,12,10,08,11.30
2007,03,12,10,09,6.40
2007,03,12,10,10,4.80
2007,03,12,10,11,9.60
2007,03,12,10,12,8.10
2007,03,12,10,13,11.30
2007,03,12,10,14,11.30
2007,03,12,10,15,9.60
2007,03,12,10,16,9.60
2007,03,12,10,17,8.10
2007,03,12,10,18,4.80
2007,03,12,10,19,9.60
2007,03,12,10,20,17.70
2007,03,12,10,21,8.10
2007,03,12,10,22,11.30
2007,03,12,10,23,11.30
2007,03,12,10,24,3.20
2007,03,12,10,25,4.80
2007,03,12,10,26,11.30
2007,03,12,10,27,6.40
2007,03,12,10,28,9.60
2007,03,12,10,29,19.30
2007,03,12,10,30,4.80
2007,03,12,10,31,8.10
2007,03,12,10,32,19.30
2007,03,12,10,33,8.10
2007,03,12,10,34,8.10
2007,03,12,10,35,9.60
2007,03,12,10,36,17.70
2007,03,12,10,37,16.10
2007,03,12,10,38,4.80
2007,03,12,10,39,4.80
2007,03,12,10,40,6.40
2007,03,12,10,41,3.20
2007,03,12,10,42,3.20
2007,03,12,10,43,6.40
2007,03,12,10,44,1.60
2007,03,12,10,45,1.60
2007,03,12,10,46,1.60
2007,03,12,10,47,6.40
2007,03,12,10,48,6.40
2007,03,12,10,49,3.20
2007,03,12,10,50,4.80
2007,03,12,10,51,6.40
2007,03,12,10,52,6.40
2007,03,12,10,53,11.30
2007,03,12,10,54,8.10
2007,03,12,10,55,4.80
2007,03,12,10,56,9.60
2007,03,12,10,57,11.30
2007,03,12,10,58,9.60
2007,03,12,10,59,9.60
2007,03,12,11,00,3.20
2007,03,12,11,01,6.40
2007,03,12,11,02,11.30
2007,03,12,11,03,11.30
2007,03,12,11,04,6.40
2007,03,12,11,05,8.10
2007,03,12,11,06,9.60
2007,03,12,11,07,12.90
2007,03,12,11,08,12.90
2007,03,12,11,09,16.10
2007,03,12,11,10,1.60
2007,03,12,11,11,4.80
2007,03,12,11,12,6.40
2007,03,12,11,13,9.60
2007,03,12,11,14,9.60
2007,03,12,11,15,9.60
2007,03,12,11,16,8.10
2007,03,12,11,17,17.70
2007,03,12,11,18,16.10
2007,03,12,11,19,8.10
2007,03,12,11,20,6.40
2007,03,12,11,21,4.80
2007,03,12,11,22,8.10
2007,03,12,11,23,4.80
2007,03,12,11,24,9.60
2007,03,12,11,25,6.40
2007,03,12,11,26,6.40
2007,03,12,11,27,9.60
2007,03,12,11,28,8.10
2007,03,12,11,29,6.40
2007,03,12,11,30,8.10
2007,03,12,11,31,6.40
2007,03,12,11,32,6.40
2007,03,12,11,33,4.80
2007,03,12,11,34,14.50
2007,03,12,11,35,17.70
2007,03,12,11,36,14.50
2007,03,12,11,37,9.60
2007,03,12,11,38,11.30
2007,03,12,11,39,12.90
2007,03,12,11,40,8.10
2007,03,12,11,41,6.40
2007,03,12,11,42,17.70
2007,03,12,11,43,11.30
2007,03,12,11,44,11.30
2007,03,12,11,45,17.70
2007,03,12,11,46,11.30
2007,03,12,11,47,16.10
2007,03,12,11,48,14.50
2007,03,12,11,49,20.90
2007,03,12,11,50,19.30
2007,03,12,11,51,29.00
2007,03,12,11,52,14.50
2007,03,12,11,53,6.40
2007,03,12,11,54,6.40
2007,03,12,11,55,20.90
2007,03,12,11,56,11.30
2007,03,12,11,57,17.70
2007,03,12,11,58,19.30
2007,03,12,11,59,19.30
2007,03,12,12,00,22.50
2007,03,12,12,01,17.70
2007,03,12,12,02,14.50
2007,03,12,12,03,11.30
2007,03,12,12,04,22.50
2007,03,12,12,05,9.60
2007,03,12,12,06,16.10
2007,03,12,12,07,19.30
2007,03,12,12,08,19.30
2007,03,12,12,09,8.10
2007,03,12,12,10,16.10
2007,03,12,12,11,16.10
2007,03,12,12,12,8.10
2007,03,12,12,13,1.60
2007,03,12,12,14,9.60
2007,03,12,12,15,11.30
2007,03,12,12,16,20.90
2007,03,12,12,17,14.50
2007,03,12,12,18,6.40
2007,03,12,12,19,9.60
2007,03,12,12,20,8.10
2007,03,12,12,21,17.70
2007,03,12,12,22,16.10
2007,03,12,12,23,11.30
2007,03,12,12,24,17.70
2007,03,12,12,25,19.30
2007,03,12,12,26,8.10
2007,03,12,12,27,9.60
2007,03,12,12,28,9.60
2007,03,12,12,29,17.70
2007,03,12,12,30,17.70
2007,03,12,12,31,20.90
2007,03,12,12,32,9.60
2007,03,12,12,33,9.60
2007,03,12,12,34,27.40
2007,03,12,12,35,11.30
2007,03,12,12,36,19.30
2007,03,12,12,37,24.20
2007,03,12,12,38,16.10
2007,03,12,12,39,20.90
2007,03,12,12,40,17.70
2007,03,12,12,41,19.30
2007,03,12,12,42,12.90
2007,03,12,12,43,12.90
2007,03,12,12,44,9.60
2007,03,12,12,45,4.80
2007,03,12,12,46,16.10
2007,03,12,12,47,22.50
2007,03,12,12,48,20.90
2007,03,12,12,49,4.80
2007,03,12,12,50,8.10
2007,03,12,12,51,11.30
2007,03,12,12,52,9.60
2007,03,12,12,53,8.10
2007,03,12,12,54,8.10
2007,03,12,12,55,16.10
2007,03,12,12,56,9.60
2007,03,12,12,57,11.30
2007,03,12,12,58,6.40
2007,03,12,12,59,3.20
2007,03,12,13,00,3.20
2007,03,12,13,01,12.90
2007,03,12,13,02,8.10
2007,03,12,13,03,9.60
2007,03,12,13,04,1.60
2007,03,12,13,05,6.40
2007,03,12,13,06,20.90
2007,03,12,13,07,9.60
2007,03,12,13,08,8.10
2007,03,12,13,09,17.70
2007,03,12,13,10,14.50
2007,03,12,13,11,9.60
2007,03,12,13,12,9.60
2007,03,12,13,13,9.60
2007,03,12,13,14,14.50
2007,03,12,13,15,20.90
2007,03,12,13,16,17.70
2007,03,12,13,17,11.30
2007,03,12,13,18,16.10
2007,03,12,13,19,8.10
2007,03,12,13,20,22.50
2007,03,12,13,21,8.10
2007,03,12,13,22,8.10
2007,03,12,13,23,11.30
2007,03,12,13,24,8.10
2007,03,12,13,25,11.30
2007,03,12,13,26,14.50
2007,03,12,13,27,14.50
2007,03,12,13,28,20.90
2007,03,12,13,29,14.50
2007,03,12,13,30,22.50
2007,03,12,13,31,20.90
2007,03,12,13,32,20.90
2007,03,12,13,33,11.30
2007,03,12,13,34,16.10
2007,03,12,13,35,16.10
2007,03,12,13,36,14.50
2007,03,12,13,37,9.60
2007,03,12,13,38,20.90
2007,03,12,13,39,11.30
2007,03,12,13,40,4.80
2007,03,12,13,41,16.10
2007,03,12,13,42,12.90
2007,03,12,13,43,14.50
2007,03,12,13,44,9.60
2007,03,12,13,45,14.50
2007,03,12,13,46,14.50
2007,03,12,13,47,25.70
2007,03,12,13,48,17.70
2007,03,12,13,49,19.30
2007,03,12,13,50,16.10
2007,03,12,13,51,9.60
2007,03,12,13,52,11.30
2007,03,12,13,53,4.80
2007,03,12,13,54,8.10
2007,03,12,13,55,4.80
2007,03,12,13,56,17.70
2007,03,12,13,57,20.90
2007,03,12,13,58,16.10
2007,03,12,13,59,16.10
2007,03,12,14,00,16.10
2007,03,12,14,01,14.50
2007,03,12,14,02,9.60
2007,03,12,14,03,11.30
2007,03,12,14,04,22.50
2007,03,12,14,05,6.40
2007,03,12,14,06,20.90
2007,03,12,14,07,11.30
2007,03,12,14,08,12.90
2007,03,12,14,09,17.70
2007,03,12,14,10,20.90
2007,03,12,14,11,11.30
2007,03,12,14,12,16.10
2007,03,12,14,13,17.70
2007,03,12,14,14,20.90
2007,03,12,14,15,8.10
2007,03,12,14,16,11.30
2007,03,12,14,17,16.10
2007,03,12,14,18,14.50
2007,03,12,14,19,17.70
2007,03,12,14,20,19.30
2007,03,12,14,21,3.20
2007,03,12,14,22,24.20
2007,03,12,14,23,19.30
2007,03,12,14,24,8.10
2007,03,12,14,25,8.10
2007,03,12,14,26,8.10
2007,03,12,14,27,14.50
2007,03,12,14,28,11.30
2007,03,12,14,29,17.70
2007,03,12,14,30,12.90
2007,03,12,14,31,22.50
2007,03,12,14,32,24.20
2007,03,12,14,33,19.30
2007,03,12,14,34,19.30
2007,03,12,14,35,9.60
2007,03,12,14,36,8.10
2007,03,12,14,37,20.90
2007,03,12,14,38,4.80
2007,03,12,14,39,11.30
2007,03,12,14,40,16.10
2007,03,12,14,41,14.50
2007,03,12,14,42,11.30
2007,03,12,14,43,9.60
2007,03,12,14,44,11.30
2007,03,12,14,45,17.70
2007,03,12,14,46,14.50
2007,03,12,14,47,8.10
2007,03,12,14,48,24.20
2007,03,12,14,49,25.70
2007,03,12,14,50,11.30
2007,03,12,14,51,8.10
2007,03,12,14,52,11.30
2007,03,12,14,53,12.90
2007,03,12,14,54,22.50
2007,03,12,14,55,14.50
2007,03,12,14,56,19.30
2007,03,12,14,57,14.50
2007,03,12,14,58,22.50
2007,03,12,14,59,22.50
2007,03,12,15,00,19.30
2007,03,12,15,01,17.70
2007,03,12,15,02,16.10
2007,03,12,15,03,27.40
2007,03,12,15,04,8.10
2007,03,12,15,05,8.10
2007,03,12,15,06,24.20
2007,03,12,15,07,22.50
2007,03,12,15,08,20.90
2007,03,12,15,09,11.30
2007,03,12,15,10,4.80
2007,03,12,15,11,19.30
2007,03,12,15,12,12.90
2007,03,12,15,13,3.20
2007,03,12,15,14,16.10
2007,03,12,15,15,17.70
2007,03,12,15,16,11.30
2007,03,12,15,17,16.10
2007,03,12,15,18,11.30
2007,03,12,15,19,16.10
2007,03,12,15,20,14.50
2007,03,12,15,21,16.10
2007,03,12,15,22,16.10
2007,03,12,15,23,14.50
2007,03,12,15,24,11.30
2007,03,12,15,25,14.50
2007,03,12,15,26,8.10
2007,03,12,15,27,9.60
2007,03,12,15,28,16.10
2007,03,12,15,29,14.50
2007,03,12,15,30,8.10
2007,03,12,15,31,6.40
2007,03,12,15,32,6.40
2007,03,12,15,33,4.80
2007,03,12,15,34,16.10
2007,03,12,15,35,9.60
2007,03,12,15,36,9.60
2007,03,12,15,37,14.50
2007,03,12,15,38,9.60
2007,03,12,15,39,4.80
2007,03,12,15,40,22.50
2007,03,12,15,41,11.30
2007,03,12,15,42,16.10
2007,03,12,15,43,9.60
2007,03,12,15,44,12.90
2007,03,12,15,45,8.10
2007,03,12,15,46,6.40
2007,03,12,15,47,4.80
2007,03,12,15,48,16.10
2007,03,12,15,49,19.30
2007,03,12,15,50,11.30
2007,03,12,15,51,16.10
2007,03,12,15,52,19.30
2007,03,12,15,53,11.30
2007,03,12,15,54,9.60
2007,03,12,15,55,9.60
2007,03,12,15,56,14.50
2007,03,12,15,57,11.30
2007,03,12,15,58,8.10
2007,03,12,15,59,14.50
2007,03,12,16,00,4.80
2007,03,12,16,01,8.10
2007,03,12,16,02,8.10
2007,03,12,16,03,6.40
2007,03,12,16,04,8.10
2007,03,12,16,05,8.10
2007,03,12,16,06,6.40
2007,03,12,16,07,6.40
2007,03,12,16,08,8.10
2007,03,12,16,09,9.60
2007,03,12,16,10,14.50
2007,03,12,16,11,12.90
2007,03,12,16,12,9.60
2007,03,12,16,13,4.80
2007,03,12,16,14,4.80
2007,03,12,16,15,17.70
2007,03,12,16,16,8.10
2007,03,12,16,17,6.40
2007,03,12,16,18,11.30
2007,03,12,16,19,14.50
2007,03,12,16,20,9.60
2007,03,12,16,21,9.60
2007,03,12,16,22,4.80
2007,03,12,16,23,8.10
2007,03,12,16,24,6.40
2007,03,12,16,25,1.60
2007,03,12,16,26,0.00
2007,03,12,16,27,6.40
2007,03,12,16,28,3.20
2007,03,12,16,29,4.80
2007,03,12,16,30,4.80
2007,03,12,16,31,17.70
2007,03,12,16,32,14.50
2007,03,12,16,33,16.10
2007,03,12,16,34,11.30
2007,03,12,16,35,9.60
2007,03,12,16,36,4.80
2007,03,12,16,37,12.90
2007,03,12,16,38,11.30
2007,03,12,16,39,9.60
2007,03,12,16,40,8.10
2007,03,12,16,41,11.30
2007,03,12,16,42,9.60
2007,03,12,16,43,11.30
2007,03,12,16,44,8.10
2007,03,12,16,45,6.40
2007,03,12,16,46,3.20
2007,03,12,16,47,3.20
2007,03,12,16,48,8.10
2007,03,12,16,49,3.20
2007,03,12,16,50,8.10
2007,03,12,16,51,11.30
2007,03,12,16,52,11.30
2007,03,12,16,53,8.10
2007,03,12,16,54,8.10
2007,03,12,16,55,9.60
2007,03,12,16,56,9.60
2007,03,12,16,57,17.70
2007,03,12,16,58,11.30
2007,03,12,16,59,8.10
2007,03,12,17,00,9.60
2007,03,12,17,01,11.30
2007,03,12,17,02,9.60
2007,03,12,17,03,9.60
2007,03,12,17,04,6.40
2007,03,12,17,05,4.80
2007,03,12,17,06,4.80
2007,03,12,17,07,1.60
2007,03,12,17,08,1.60
2007,03,12,17,09,1.60
2007,03,12,17,10,8.10
2007,03,12,17,11,6.40
2007,03,12,17,12,6.40
2007,03,12,17,13,4.80
2007,03,12,17,14,8.10
2007,03,12,17,15,11.30
2007,03,12,17,16,8.10
2007,03,12,17,17,9.60
2007,03,12,17,18,9.60
2007,03,12,17,19,3.20
2007,03,12,17,20,22.50
2007,03,12,17,21,6.40
2007,03,12,17,22,6.40
2007,03,12,17,23,1.60
2007,03,12,17,24,3.20
2007,03,12,17,25,4.80
2007,03,12,17,26,17.70
2007,03,12,17,27,8.10
2007,03,12,17,28,4.80
2007,03,12,17,29,3.20
2007,03,12,17,30,11.30
2007,03,12,17,31,11.30
2007,03,12,17,32,1.60
2007,03,12,17,33,14.50
2007,03,12,17,34,8.10
2007,03,12,17,35,3.20
2007,03,12,17,36,6.40
2007,03,12,17,37,4.80
2007,03,12,17,38,3.20
2007,03,12,17,39,4.80
2007,03,12,17,40,9.60
2007,03,12,17,41,14.50
2007,03,12,17,42,4.80